Regional Weather Roundup
Issued by NWS

Home | Current Version | Previous Version | Text Only | Print | Product List | Glossary On
Versions: 1 2 3 4 5 6 7 8 9 10 11 12 13 14 15 16 17 18 19 20 21 22 23 24 25 26 27 28 29 30 31 32 33 34 35 36 37 38 39 40 41 42 43 44 45 46 47 48 49 50
000
ASUS44 KFWD 181215
RWRTX
NORTH TEXAS HOURLY WEATHER ROUNDUP
NATIONAL WEATHER SERVICE FORT WORTH TX
600 AM CST THU JAN 18 2018

NOTE: "FAIR" INDICATES FEW OR NO CLOUDS BELOW 12,000 FEET WITH NO
SIGNIFICANT WEATHER AND/OR OBSTRUCTIONS TO VISIBILITY.

TXZ118-119-181300-
DALLAS/FORT WORTH METROPLEX

CITY           SKY/WX    TMP DP  RH WIND       PRES   REMARKS
DFW AIRPORT    CLOUDY    19  10  68 SW6       30.51F WCI  11
6HR MIN TEMP:  19; 6HR MAX TEMP:  25;

DALLAS LOVE    CLOUDY    23  11  60 S3        30.54F
6HR MIN TEMP:  22; 6HR MAX TEMP:  26;

FTW MEACHAM    CLOUDY    21  10  62 S5        30.52F WCI  15
6HR MIN TEMP:  19; 6HR MAX TEMP:  25;

DAL-EXECUTIVE  CLOUDY    22  10  60 S3        30.51F
6HR MIN TEMP:  20; 6HR MAX TEMP:  24;

FTW-ALLIANCE   CLOUDY    17  10  74 SW5       30.51F WCI  10
6HR MIN TEMP:  11; 6HR MAX TEMP:  21;

FTW-NAS-JRB    CLOUDY    20   8  60 SE5       30.52F WCI  13
6HR MIN TEMP:  19; 6HR MAX TEMP:  25;

FTW-SPINKS     CLOUDY    14  10  81 CALM      30.54S
6HR MIN TEMP:  10; 6HR MAX TEMP:  21;

ARLINGTON      CLOUDY    11   9  92 CALM      30.53F
6HR MIN TEMP:  10; 6HR MAX TEMP:  18;

GRAND PRAIRIE  CLOUDY    20  10  66 S3        30.55S
6HR MIN TEMP:  20; 6HR MAX TEMP:  24;

ADDISON        CLEAR     43  10  26 CALM      30.54F
MESQUITE       CLOUDY    14   9  81 S5        30.55F WCI   6
6HR MIN TEMP:  12; 6HR MAX TEMP:  21;

LANCASTER      CLOUDY    12   7  79 CALM      30.55F
6HR MIN TEMP:  11; 6HR MAX TEMP:  20;

$$

TXZ091>094-102>105-117-120-121-131>134-181300-
NORTH CENTRAL TEXAS

CITY           SKY/WX    TMP DP  RH WIND       PRES   REMARKS
SHRMAN/DENISON CLOUDY    18   9  69 S8        30.52S WCI   7
6HR MIN TEMP:  17; 6HR MAX TEMP:  20;

GAINESVILLE    CLOUDY    16   7  66 CALM      30.52S
6HR MIN TEMP:  15; 6HR MAX TEMP:  20;

BOWIE          CLOUDY    15   7  72 S5        30.47F WCI   7
6HR MIN TEMP:  15; 6HR MAX TEMP:  20;

BRIDGEPORT     CLOUDY    11   8  85 CALM      30.52S
6HR MIN TEMP:  10; 6HR MAX TEMP:  23;

DENTON         CLOUDY    13   7  77 CALM      30.52F
6HR MIN TEMP:  10; 6HR MAX TEMP:  20;

MCKINNEY       CLOUDY    12   9  87 S3        30.53F
6HR MIN TEMP:  12; 6HR MAX TEMP:  18;

BONHAM         CLOUDY    15   8  75 S5        30.53S WCI   7
6HR MIN TEMP:  14; 6HR MAX TEMP:  20;

GREENVILLE     CLOUDY    18  12  79 CALM      30.55S
ROCKWALL       CLOUDY    20  11  67 MISG      30.54F
6HR MIN TEMP:  19; 6HR MAX TEMP:  23;

TERRELL        CLOUDY    13   8  81 CALM      30.55F
6HR MIN TEMP:  12; 6HR MAX TEMP:  18;

WAXAHACHIE     CLOUDY    17  12  80 S3        30.54F
6HR MIN TEMP:  17; 6HR MAX TEMP:  21;

CLEBURNE       CLOUDY    16  10  79 SW5       30.53S WCI   9
GRANBURY       CLOUDY    14  10  84 CALM      30.53F
6HR MIN TEMP:  12; 6HR MAX TEMP:  25;

$$

TXZ083>090-098>101-113>116-127>130-139>142-154-155-181300-
WESTERN NORTH TEXAS

CITY           SKY/WX    TMP DP  RH WIND       PRES   REMARKS
WICHITA FALLS  CLOUDY    17   7  64 S10       30.44F WCI   5
6HR MIN TEMP:  14; 6HR MAX TEMP:  18;

WF-KICKAPOO    CLOUDY    17   8  66 S6        30.48F WCI   9
6HR MIN TEMP:  17; 6HR MAX TEMP:  20;

VERNON         CLOUDY    17   0  47 SW5       30.43S WCI  10
6HR MIN TEMP:   6; 6HR MAX TEMP:  47;

ABILENE        CLOUDY    31   8  38 SW8       30.40F WCI  23
6HR MIN TEMP:  23; 6HR MAX TEMP:  31;

ABILENE-DYESS  CLOUDY    32  12  43 CALM      30.39F
6HR MIN TEMP:  23; 6HR MAX TEMP:  34;

GRAHAM           N/A     17   8  70 CALM      30.46S
6HR MIN TEMP:  16; 6HR MAX TEMP:  23;

BRECKENRIDGE   CLOUDY    25   8  47 S5        30.45S WCI  19
6HR MIN TEMP:  20; 6HR MAX TEMP:  26;

CISCO          CLOUDY    25   9  50 S9        30.43F WCI  15
EASTLAND       CLOUDY    20   9  63 S6        30.45F WCI  12
6HR MIN TEMP:  11; 6HR MAX TEMP:  21;

RANGER         CLOUDY    19   9  65 S8        30.45F WCI   9
6HR MIN TEMP:   2; 6HR MAX TEMP:  60;

MINERAL WELLS  PTCLDY    13   7  77 SE5       30.48F WCI   5
6HR MIN TEMP:  11; 6HR MAX TEMP:  19;

STEPHENVILLE   CLOUDY    16   8  71 S5        30.50S WCI   9
6HR MIN TEMP:  15; 6HR MAX TEMP:  19;

COMANCHE       CLOUDY    21  12  68 SE3       30.47F
6HR MIN TEMP:  18; 6HR MAX TEMP:  21;

BROWNWOOD      CLOUDY    27   9  46 S5        30.47F WCI  21
COLEMAN        CLOUDY    28   9  43 S5        30.44F WCI  23
6HR MIN TEMP:  23; 6HR MAX TEMP:  28;

$$

TXZ143>147-156>162-174-175-181300-
CENTRAL TEXAS

CITY           SKY/WX    TMP DP  RH WIND       PRES   REMARKS
WACO           CLOUDY    12   7  80 W3        30.55F
6HR MIN TEMP:  12; 6HR MAX TEMP:  20;

WACO-MCGREGOR  CLOUDY    10   4  76 CALM      30.55S
6HR MIN TEMP:  10; 6HR MAX TEMP:  16;

CORSICANA      CLOUDY    20  15  81 SE6       30.56F WCI  12
6HR MIN TEMP:  18; 6HR MAX TEMP:  22;

MEXIA          CLOUDY    19  10  66 S6        30.55S WCI  11
6HR MIN TEMP:  19; 6HR MAX TEMP:  24;

HEARNE         PTCLDY    16  14  93 CALM      30.58F
CAMERON        CLOUDY    18  14  83 CALM      30.56F
6HR MIN TEMP:  17; 6HR MAX TEMP:  21;

KILLEEN        CLOUDY    23  12  63 S3        30.50S
6HR MIN TEMP:  16; 6HR MAX TEMP:  23;

KILLEEN-SKYLRK CLOUDY    19  14  81 CALM      30.53S
6HR MIN TEMP:  15; 6HR MAX TEMP:  21;

FORT HOOD      CLOUDY    21  13  70 CALM      30.49S
6HR MIN TEMP:  20; 6HR MAX TEMP:  23;

GATESVILLE     CLOUDY    14   9  79 CALM      30.54F
LAMPASAS       CLOUDY    24  11  57 CALM      30.48S
6HR MIN TEMP:  17; 6HR MAX TEMP:  24;

$$

TXZ095>097-106>112-122>126-135>138-148>153-164>167-181300-
EAST TEXAS

CITY           SKY/WX    TMP DP  RH WIND       PRES   REMARKS
PARIS          CLOUDY    15   9  76 S5        30.54F WCI   8
6HR MIN TEMP:  14; 6HR MAX TEMP:  19;

SULPHUR SPRNGS CLOUDY    15  11  84 SW3       30.57F
6HR MIN TEMP:  15; 6HR MAX TEMP:  25;

MOUNT PLEASANT CLOUDY    12  10  90 CALM      30.58F
6HR MIN TEMP:  12; 6HR MAX TEMP:  18;

GILMER         CLOUDY    14  12  92 MISG      30.56S
6HR MIN TEMP:  13; 6HR MAX TEMP:  18;

MINEOLA        CLOUDY    12   9  85 CALM      30.56F
TYLER          CLOUDY    17  11  77 S5        30.55S WCI  10
6HR MIN TEMP:  16; 6HR MAX TEMP:  22;

LONGVIEW       CLOUDY    15  14  95 CALM      30.57S
6HR MIN TEMP:  14; 6HR MAX TEMP:  20;

MARSHALL       CLOUDY    13  10  90 CALM      30.59F
6HR MIN TEMP:  13; 6HR MAX TEMP:  15;

ATHENS         CLOUDY    10   9  92 CALM      30.56S
PALESTINE      CLOUDY    14  11  89 CALM      30.58F
JACKSONVILLE   CLOUDY    20  12  71 CALM      30.56S
CENTER         FAIR      13  10  85 CALM      30.59S
6HR MIN TEMP:  13; 6HR MAX TEMP:  17;

NACOGDOCHES    CLOUDY    11   9  92 CALM      30.59S
6HR MIN TEMP:  11; 6HR MAX TEMP:  16;

LUFKIN         CLOUDY    15  13  91 CALM      30.57F
6HR MIN TEMP:  15; 6HR MAX TEMP:  22;

$$

SUPPLEMENTAL OBSERVATIONS (NWS FORT WORTH AREA)

CITY           SKY/WX    TMP DP  RH WIND       PRES   REMARKS
DENISON DAM      N/A     27  16  63 S2          N/A
CADDO GRASSLND   N/A     18  14  86 S2          N/A
PAT MAYSE LAKE   N/A     23  16  74 SE6         N/A  WCI  16
GREENVILLE       N/A     19  12  73 S3          N/A
CEDAR HILL       N/A     19  10  68 SW2         N/A
LBJ GRASSLAND    N/A     19   9  63 SE5         N/A  WCI  13
POSSUM KINGDOM   N/A     23   9  54 SE1G9       N/A
GRANBURY         N/A     18  12  79 CALM        N/A



USA.gov is the U.S. government's official web portal to all federal, state and local government web resources and services.